Погода в Наратхивате

Таиланд     6°25′13″N   101°49′15″E
темп.,
°C
ветер,
м/с
пор.,
м/с
влажн.,
%
обл.,
%
осадки,
мм/ч
давл.,
гПа
погр.,
м
17 апреля, сб
сб1701:00+26зюз2278100 0.0 1011117
04:00+25з118393 3.6 101026
07:00+25юз118485 5.3 101296
10:00+29вюв1167100 0.0 1013647
13:00+30всв5364100 0.0 1011740
16:00+29св4468100 0.1 1009654
19:00+28в2273100 0.7 1011438
22:00+27вюв1274100 1.1 1013373
18 апреля, вс
вс1801:00+26ююз2382100 1.2 1012183
04:00+25ююз3386100 0.2 1011112
07:00+25юз2284100 0.2 1012133
10:00+29зсз2364100 0.0 1013713
13:00+30св3462100 0.0 10101083
16:00+29св4470100 0.0 1008469
19:00+27ссв2378100 0.7 1010315
22:00+26ююв1183100 3.6 101229
19 апреля, пн
пн1901:00+25ююз2388100 5.6 101191
04:00+25ююз228692 0.2 1010106
07:00+25зюз228499 0.2 1011131
10:00+30з026292 0.0 1012684
13:00+32св3455100 0.0 10091201
16:00+29ссв5671100 0.4 1007507
19:00+28сз4675100 2.1 1009340
22:00+27зюз3480100 1.4 1011115
20 апреля, вт
вт2001:00+25ююз238498 2.4 1010114
04:00+25юз2285100 0.2 1009117
07:00+25юз228064 0.2 1010133
10:00+30зюз135981 0.0 1011750
13:00+30всв436299 0.6 1008627
16:00+29с237393 1.6 1007333
19:00+28ссз227429 2.8 1009250
22:00+27з338166 2.7 1011131
21 апреля, ср
ср2101:00+26юз2285100 3.1 1010111
04:00+25ююз3386100 0.0 1008127
07:00+25ююз2283100 0.0 1010126
10:00+30ссз015947 0.0 1011659
13:00+31ссз446153 0.6 10091011
16:00+32сз4559100 0.3 1007893
19:00+28зсз3575100 0.4 1009233
22:00+27юз3383100 1.1 1011117